Date String (YYYY-MM-DD hh:mm:ss) UTC,Instrument flags,absolute air pressure of the measurement (hPa),sample flow rate (lpm),inlet stack bypass flow (lpm),air temperature of the measurement (°C),ambient temperature measured by the external sensor (°C),aerosol sample conditioner tube jacket temperature (°C),OPC LED temperature (°C),internal box temperature (°C),relative humidity of the measurement (%),span deviation,mass concentration of particles derived from Lorenz-Mie calculation of OPC scattering (μg/m³),mass concentration of particles derived from Lorenz-Mie calculation of OPC scattering (μg/m³),mass concentration of particles derived from Lorenz-Mie calculation of OPC scattering (μg/m³)
DateTimeUTC,F1_M11,P_M11,Q1_M11,Q2_M11,T1_M11,T2_M11,T3_M11,T4_M11,T5_M11,U1_M11,ZSPAN_M11,X0_M11,X2_M11,X1_M11
2023-06-04 20:00:00,SystemResetWarning,0834.9,5.00,000.00,030.6,029.0,000.0,039.0,032.2,29.8,0000.0,0004.11,0001.66,0001.22
2023-06-04 20:01:00,SystemResetWarning,0834.9,4.99,000.00,030.6,029.1,000.0,039.0,032.2,29.9,0000.0,0003.65,0001.67,0001.24
2023-06-04 20:02:00,SystemResetWarning,0834.9,5.00,000.00,030.6,029.1,000.0,039.0,032.2,29.8,0000.0,0003.66,0001.70,0001.25
2023-06-04 20:03:00,SystemResetWarning,0834.9,5.00,000.00,030.6,029.1,000.0,039.0,032.2,30.0,0000.0,0003.64,0001.72,0001.27
2023-06-04 20:04:00,SystemResetWarning,0834.9,5.00,000.00,030.6,029.1,000.0,039.0,032.2,30.0,0000.0,0003.96,0001.75,0001.29
2023-06-04 20:05:00,SystemResetWarning,0834.9,5.01,000.00,030.6,029.1,000.0,039.0,032.2,30.4,0000.0,0003.93,0001.78,0001.31
2023-06-04 20:06:00,SystemResetWarning,0834.9,5.00,000.00,030.6,029.1,000.0,039.0,032.2,30.7,0000.0,0003.38,0001.78,0001.34
2023-06-04 20:07:00,SystemResetWarning,0834.9,4.98,000.00,030.6,028.1,000.0,038.9,032.1,30.5,0000.0,0003.44,0001.83,0001.38
2023-06-04 20:08:00,SystemResetWarning,0835.2,5.00,000.00,030.5,026.3,000.0,038.8,031.7,30.5,0000.0,0003.24,0001.88,0001.43
2023-06-04 20:09:00,SystemResetWarning,0835.4,5.01,000.00,030.4,025.3,000.0,038.7,031.5,30.6,0000.0,0003.30,0001.97,0001.48
2023-06-04 20:10:00,SystemResetWarning,0835.0,5.01,000.00,030.3,025.3,000.0,038.7,031.3,31.1,0000.0,0003.48,0002.03,0001.51
2023-06-04 20:11:00,SystemResetWarning,0834.8,5.00,000.00,030.1,025.6,000.0,038.7,031.3,31.3,0000.0,0003.52,0002.02,0001.52
2023-06-04 20:12:00,SystemResetWarning,0834.8,5.00,000.00,030.1,026.1,000.0,038.6,031.3,31.1,0000.0,0003.56,0002.05,0001.54
2023-06-04 20:13:00,SystemResetWarning,0834.8,5.00,000.00,030.0,026.5,000.0,038.6,031.4,30.8,0000.0,0003.66,0002.10,0001.57
2023-06-04 20:14:00,SystemResetWarning,0834.8,4.99,000.00,030.0,026.9,000.0,038.6,031.4,31.2,0000.0,0003.88,0002.15,0001.59
2023-06-04 20:15:00,SystemResetWarning,0834.8,4.99,000.00,030.0,027.2,000.0,038.5,031.4,31.9,0000.0,0003.78,0002.16,0001.60
2023-06-04 20:16:00,SystemResetWarning,0834.8,5.00,000.00,030.0,027.4,000.0,038.5,031.5,31.9,0000.0,0003.50,0002.17,0001.62
2023-06-04 20:17:00,SystemResetWarning,0834.8,5.01,000.00,030.0,027.6,000.0,038.5,031.5,31.6,0000.0,0003.53,0002.19,0001.63
2023-06-04 20:18:00,SystemResetWarning,0834.8,5.01,000.00,030.0,027.8,000.0,038.5,031.5,31.5,0000.0,0003.49,0002.22,0001.66
2023-06-04 20:19:00,SystemResetWarning,0834.8,4.99,000.00,030.0,028.0,000.0,038.5,031.5,31.2,0000.0,0003.61,0002.28,0001.69
2023-06-04 20:20:00,SystemResetWarning,0834.8,4.99,000.00,030.0,028.1,000.0,038.5,031.5,30.7,0000.0,0003.72,0002.33,0001.70
2023-06-04 20:21:00,SystemResetWarning,0834.8,5.00,000.00,030.0,028.2,000.0,038.4,031.5,30.4,0000.0,0003.68,0002.33,0001.70
2023-06-04 20:22:00,SystemResetWarning,0834.7,5.01,000.00,030.0,028.2,000.0,038.4,031.6,30.2,0000.0,0004.01,0002.30,0001.71
2023-06-04 20:23:00,SystemResetWarning,0834.7,5.01,000.00,030.0,028.3,000.0,038.4,031.6,30.4,0000.0,0004.26,0002.29,0001.72
2023-06-04 20:24:00,SystemResetWarning,0834.8,5.00,000.00,030.0,028.4,000.0,038.4,031.6,30.2,0000.0,0004.25,0002.29,0001.73
2023-06-04 20:25:00,SystemResetWarning,0834.7,4.99,000.00,030.0,028.4,000.0,038.4,031.6,30.1,0000.0,0004.03,0002.23,0001.73
2023-06-04 20:26:00,SystemResetWarning,0834.7,5.00,000.00,030.1,028.5,000.0,038.4,031.7,30.0,0000.0,0003.93,0002.24,0001.73
2023-06-04 20:27:00,SystemResetWarning,0834.7,5.01,000.00,030.1,028.5,000.0,038.4,031.7,30.1,0000.0,0003.89,0002.24,0001.74
2023-06-04 20:28:00,SystemResetWarning,0834.8,5.01,000.00,030.1,028.5,000.0,038.4,031.7,30.4,0000.0,0003.88,0002.24,0001.74
2023-06-04 20:29:00,SystemResetWarning,0834.7,4.99,000.00,030.1,028.6,000.0,038.5,031.7,30.6,0000.0,0003.84,0002.22,0001.74
2023-06-04 20:30:00,SystemResetWarning,0834.8,4.99,000.00,030.1,028.6,000.0,038.5,031.7,30.3,0000.0,0004.00,0002.17,0001.71
2023-06-04 20:31:00,SystemResetWarning,0834.7,5.00,000.00,030.1,028.6,000.0,038.5,031.7,30.1,0000.0,0003.99,0002.11,0001.70
2023-06-04 20:32:00,SystemResetWarning,0834.8,5.00,000.00,030.1,028.6,000.0,038.5,031.8,30.3,0000.0,0004.07,0002.04,0001.68
2023-06-04 20:33:00,SystemResetWarning,0834.8,5.01,000.00,030.2,028.6,000.0,038.5,031.7,30.6,0000.0,0004.10,0002.04,0001.67
2023-06-04 20:34:00,SystemResetWarning,0834.7,5.01,000.00,030.2,028.7,000.0,038.5,031.8,30.5,0000.0,0003.73,0002.04,0001.66
2023-06-04 20:35:00,SystemResetWarning,0834.8,5.00,000.00,030.2,028.7,000.0,038.5,031.8,30.6,0000.0,0003.91,0002.05,0001.65
2023-06-04 20:36:00,SystemResetWarning,0834.7,4.99,000.00,030.2,028.7,000.0,038.5,031.8,30.6,0000.0,0005.38,0002.07,0001.65
2023-06-04 20:37:00,SystemResetWarning,0834.7,5.00,000.00,030.2,028.7,000.0,038.5,031.8,30.6,0000.0,0005.80,0002.05,0001.63
2023-06-04 20:38:00,SystemResetWarning,0834.9,5.00,000.00,030.2,028.7,000.0,038.5,031.8,30.5,0000.0,0006.02,0002.03,0001.62
2023-06-04 20:39:00,SystemResetWarning,0834.8,5.00,000.00,030.2,028.7,000.0,038.5,031.8,30.4,0000.0,0006.11,0002.03,0001.61
2023-06-04 20:40:00,SystemResetWarning,0835.4,4.99,000.00,030.2,028.7,000.0,038.6,031.9,30.7,0000.0,0006.07,0002.01,0001.60
2023-06-04 20:41:00,SystemResetWarning,0835.3,5.01,000.00,030.3,028.8,000.0,038.6,031.9,30.8,0000.0,0005.96,0002.06,0001.60
2023-06-04 20:42:00,SystemResetWarning,0835.4,5.01,000.00,030.3,028.8,000.0,038.6,031.9,30.8,0000.0,0006.15,0002.11,0001.60
2023-06-04 20:43:00,SystemResetWarning,0835.4,5.00,000.00,030.3,028.8,000.0,038.6,031.9,30.7,0000.0,0006.09,0002.12,0001.60
2023-06-04 20:44:00,SystemResetWarning,0835.4,4.99,000.00,030.3,028.8,000.0,038.6,031.9,30.9,0000.0,0005.96,0002.12,0001.60
2023-06-04 20:45:00,SystemResetWarning,0835.2,4.99,000.00,030.3,028.8,000.0,038.6,031.9,31.1,0000.0,0005.78,0002.13,0001.61
2023-06-04 20:46:00,SystemResetWarning,0835.2,5.00,000.00,030.3,028.8,000.0,038.6,031.9,31.2,0000.0,0005.59,0002.11,0001.60
2023-06-04 20:47:00,SystemResetWarning,0835.4,5.00,000.00,030.3,028.8,000.0,038.6,031.9,31.6,0000.0,0004.17,0002.09,0001.60
2023-06-04 20:48:00,SystemResetWarning,0835.4,5.00,000.00,030.3,028.8,000.0,038.6,031.9,31.5,0000.0,0004.02,0002.12,0001.59
2023-06-04 20:49:00,SystemResetWarning,0835.4,5.01,000.00,030.3,028.8,000.0,038.6,031.9,31.2,0000.0,0003.81,0002.12,0001.60
2023-06-04 20:50:00,SystemResetWarning,0835.4,5.01,000.00,030.3,028.9,000.0,038.7,032.0,31.1,0000.0,0004.22,0002.07,0001.59
2023-06-04 20:51:00,SystemResetWarning,0835.3,4.99,000.00,030.3,028.9,000.0,038.7,032.0,30.6,0000.0,0004.18,0002.05,0001.57
2023-06-04 20:52:00,SystemResetWarning,0835.4,4.99,000.00,030.3,028.9,000.0,038.7,032.0,30.1,0000.0,0004.36,0001.98,0001.55
2023-06-04 20:53:00,SystemResetWarning,0835.4,4.99,000.00,030.4,028.9,000.0,038.7,032.0,29.9,0000.0,0004.09,0001.92,0001.53
2023-06-04 20:54:00,SystemResetWarning,0834.9,5.00,000.00,030.4,028.9,000.0,038.7,032.0,29.6,0000.0,0003.97,0001.92,0001.52
2023-06-04 20:55:00,SystemResetWarning,0834.9,5.00,000.00,030.4,028.9,000.0,038.7,032.0,30.0,0000.0,0003.89,0001.92,0001.51
2023-06-04 20:56:00,SystemResetWarning,0834.8,4.99,000.00,030.4,028.9,000.0,038.7,032.0,30.9,0000.0,0003.87,0001.91,0001.49
2023-06-04 20:57:00,SystemResetWarning,0834.8,4.99,000.00,030.4,028.9,000.0,038.7,032.0,31.0,0000.0,0003.84,0001.89,0001.47
2023-06-04 20:58:00,SystemResetWarning,0835.1,4.99,000.00,030.4,028.9,000.0,038.7,032.0,31.3,0000.0,0003.80,0001.89,0001.48
2023-06-04 20:59:00,SystemResetWarning,0835.3,5.00,000.00,030.4,028.9,000.0,038.7,032.0,32.1,0000.0,0003.53,0001.88,0001.49
